WetterOnline ( http://www.wetteronline.de )

Wetter aktuell Lengenfeld

Aktuelles Wetter: Carlsfeld (899m)

6-stündlich | Neueste Meldungen
Ortszeit Temperatur Wetter
So, 22.07. 8:00 13.2° C leichter Regen
So, 22.07. 2:00 13.9° C leichter Regen
Sa, 21.07. 20:00 15.6° C bedeckt
Sa, 21.07. 14:00 18.2° C bedeckt
Sa, 21.07. 8:00 17.9° C bedeckt
Sa, 21.07. 2:00 16.4° C leicht bewölkt
Fr, 20.07. 20:00 21.4° C leicht bewölkt
Fr, 20.07. 14:00 21.1° C bewölkt
Ortszeit Temperatur Wetter
So, 22.07. 8:00 13.2° C leichter Regen
So, 22.07. 7:50 13.2° C leichter Regen
So, 22.07. 7:40 13.2° C leichter Regen
So, 22.07. 7:30 13.2° C Sprühregen
So, 22.07. 7:20 13.2° C Sprühregen
So, 22.07. 7:10 13.2° C leichter Regen
So, 22.07. 7:00 13.1° C leichter Regen
So, 22.07. 6:30 13.1° C leichter Regen
So, 22.07. 6:00 13.1° C Sprühregen
So, 22.07. 5:30 13.2° C leichter Regen
So, 22.07. 5:00 13.3° C leichter Regen
Ortszeit Relative Feuchte Sichtweite
So, 22.07. 8:00 96% 2.9 km
So, 22.07. 2:00 96% 5.0 km
Sa, 21.07. 20:00 86% 17 km
Sa, 21.07. 14:00 67% 27 km
Sa, 21.07. 8:00 56% 40 km
Sa, 21.07. 2:00 55% 30 km
Fr, 20.07. 20:00 42% 45 km
Fr, 20.07. 14:00 45% 40 km
Ortszeit Relative Feuchte Sichtweite
So, 22.07. 8:00 96% 2.9 km
So, 22.07. 7:50 96% -
So, 22.07. 7:40 96% -
So, 22.07. 7:30 96% 4.5 km
So, 22.07. 7:20 96% -
So, 22.07. 7:10 96% -
So, 22.07. 7:00 97% 3.5 km
So, 22.07. 6:30 97% 5.0 km
So, 22.07. 6:00 97% 2.2 km
So, 22.07. 5:30 97% 2.2 km
So, 22.07. 5:00 97% 2.4 km
Ortszeit Niederschlagsmenge Niederschlagsart
So, 22.07. 8:00 1 l/m2 in 12 Std. Regen
So, 22.07. 2:00 0.3 l/m2 in 6 Std. Regen
Sa, 21.07. 20:00 0.1 l/m2 in 12 Std. Regen
Sa, 21.07. 14:00 0.1 l/m2 in 6 Std. Regen
Sa, 21.07. 8:00 0.0 l/m2 in 12 Std. -
Sa, 21.07. 2:00 0.0 l/m2 in 6 Std. -
Fr, 20.07. 20:00 0.0 l/m2 in 12 Std. -
Fr, 20.07. 14:00 0.0 l/m2 in 6 Std. -
Ortszeit Niederschlagsmenge Niederschlagsart
So, 22.07. 8:00 0.1 l/m2 in 1 Std. Regen
So, 22.07. 7:50 keine Meldung -
So, 22.07. 7:40 keine Meldung -
So, 22.07. 7:30 0.1 l/m2 in 1 Std. -
So, 22.07. 7:20 keine Meldung -
So, 22.07. 7:10 keine Meldung -
So, 22.07. 7:00 0.1 l/m2 in 1 Std. Regen
So, 22.07. 6:30 0.1 l/m2 in 1 Std. -
So, 22.07. 6:00 0.1 l/m2 in 1 Std. Regen
So, 22.07. 5:30 0.1 l/m2 in 1 Std. -
So, 22.07. 5:00 0.3 l/m2 in 1 Std. Regen
Ortszeit Stärke Spitze Richtung
km/h Bft. km/h Grad Sektor
So, 22.07. 8:00 2 1 7 340° N
So, 22.07. 2:00 4 1 11 230° SW
Sa, 21.07. 20:00 4 1 18 60° NO
Sa, 21.07. 14:00 4 1 22 50° NO
Sa, 21.07. 8:00 11 2 25 170° S
Sa, 21.07. 2:00 13 3 22 160° S
Fr, 20.07. 20:00 6 1 20 110° O
Fr, 20.07. 14:00 4 1 22 300° NW
Ortszeit Stärke Spitze Richtung
km/h Bft. km/h Grad Sektor
So, 22.07. 8:00 2 1 7 340° N
So, 22.07. 7:50 2 1 - 340° N
So, 22.07. 7:40 2 1 - 320° NW
So, 22.07. 7:30 2 1 7 350° N
So, 22.07. 7:20 2 1 - 350° N
So, 22.07. 7:10 2 1 - 340° N
So, 22.07. 7:00 4 1 4 30° NO
So, 22.07. 6:30 2 1 4 10° N
So, 22.07. 6:00 0 0 4 - -
So, 22.07. 5:30 4 1 4 280° W
So, 22.07. 5:00 2 1 7 320° NW
Ortszeit Untergrenze Bedeckung Gattung
total tief tief mittel hoch
So, 22.07. 8:00 150 m 7/8 7/8 - - -
So, 22.07. 2:00 1800 m 8/8 8/8 - - -
Sa, 21.07. 20:00 2100 m 8/8 8/8 - - -
Sa, 21.07. 14:00 2100 m 8/8 8/8 - - -
Sa, 21.07. 8:00 3000 m 8/8 8/8 - - -
Sa, 21.07. 2:00 2100 m 2/8 2/8 - - -
Fr, 20.07. 20:00 2100 m 3/8 3/8 - - -
Fr, 20.07. 14:00 1800 m 7/8 7/8 - - -
Ortszeit Bedeckungsgrad in Achtel und Wolkenuntergrenze
So, 22.07. 8:00 1(150m) 7(1800m)
So, 22.07. 7:50 1(150m) 7(1800m)
So, 22.07. 7:40 7(1800m)
So, 22.07. 7:30 6(1800m) 7(1800m)
So, 22.07. 7:20 6(1800m)
So, 22.07. 7:10 6(1800m)
So, 22.07. 7:00 7(1800m) 5(2400m)
So, 22.07. 6:30 7(1800m)
So, 22.07. 6:00 1(30m) 7(1800m)
So, 22.07. 5:30 4(2100m) 4(1800m) 5(2400m)
So, 22.07. 5:00 4(2100m)
Ortszeit Stationsdruck (hPa) Tendenz (hPa in 3 Std.)
So, 22.07. 8:00 912 + 0,6
So, 22.07. 2:00 912 + 0,3
Sa, 21.07. 20:00 911 - 0,4
Sa, 21.07. 14:00 912 + 0,1
Sa, 21.07. 8:00 911 - 0,6
Sa, 21.07. 2:00 912 - 0,6
Fr, 20.07. 20:00 912 - 0,6
Fr, 20.07. 14:00 914 - 0,6
Ortszeit Stationsdruck (hPa) Tendenz (hPa in 3 Std.)
So, 22.07. 8:00 912 + 0,6
So, 22.07. 7:50 912 keine Meldung
So, 22.07. 7:40 912 keine Meldung
So, 22.07. 7:30 912 + 0,5
So, 22.07. 7:20 912 keine Meldung
So, 22.07. 7:10 912 keine Meldung
So, 22.07. 7:00 912 + 0,3
So, 22.07. 6:30 912 + 0,1
So, 22.07. 6:00 912 0,0
So, 22.07. 5:30 912 - 0,2
So, 22.07. 5:00 912 - 0,2
Ortszeit Schneehöhe (cm)
So, 22.07. 8:00 -
So, 22.07. 2:00 -
Sa, 21.07. 20:00 -
Sa, 21.07. 14:00 -
Sa, 21.07. 8:00 -
Sa, 21.07. 2:00 -
Fr, 20.07. 20:00 -
Fr, 20.07. 14:00 -
Ortszeit Schneehöhe (cm)
So, 22.07. 8:00 -
So, 22.07. 7:50 -
So, 22.07. 7:40 -
So, 22.07. 7:30 -
So, 22.07. 7:20 -
So, 22.07. 7:10 -
So, 22.07. 7:00 -
So, 22.07. 6:30 -
So, 22.07. 6:00 -
So, 22.07. 5:30 -
So, 22.07. 5:00 -
Link zu dieser Seite / Seite empfehlen

Das Wetter in ...